Regional Weather Roundup
Issued by NWS Bismarck, ND

Home | Current Version | Previous Version | Text Only | Print | Product List | Glossary Off
Versions: 1 2 3 4 5 6 7 8 9 10 11 12 13 14 15 16 17 18 19 20 21 22 23 24 25 26 27 28 29 30 31 32 33 34 35 36 37 38 39 40 41 42 43 44 45 46 47 48 49 50

000
ASUS43 KBIS 050810
RWRBIS

NWR BROADCAST TEXT
NATIONAL WEATHER SERVICE BISMARCK ND
300 AM CDT SUN JUL 05 2015

NOTE: "FAIR" INDICATES FEW OR NO CLOUDS BELOW 12,000 FEET WITH NO
SIGNIFICANT WEATHER AND/OR OBSTRUCTIONS TO VISIBILITY.


CITY           SKY/WX    TMP DP  RH WIND       PRES   REMARKS
WILLISTON      MOCLDY    66  62  87 N9        29.78S
MINOT          MOCLDY    61  59  93 NW7       29.76F FOG
MINOT AFB      CLEAR     59  59 100 NW6       29.76F
BISMARCK       CLEAR     69  67  93 E8        29.72F
DICKINSON      CLEAR     64  58  80 N7        29.74F
GARRISON         N/A     66  61  84 NE8       29.74F
HETTINGER ARPT PTCLDY    60  58  92 CALM      29.75F FOG
JAMESTOWN      PTCLDY    71  66  84 S12       29.74F
BEACH          FAIR      61  61 100 S5        29.77S
CROSBY         FAIR      59  59 100 NW8       29.83R
HARVEY         FAIR      68  68 100 E5        29.74F
HAZEN          FAIR      66  63  88 NE5       29.73F
LINTON         FAIR      68  68 100 SE9       29.73F
MANDAN         FAIR      68  68 100 SE7       29.73S
OAKES            N/A     66  66 100 SE7       29.75F
STANLEY        FAIR      63  63 100 E6G13     29.79F
$$

CITY           SKY/WX    TMP DP  RH WIND       PRES   REMARKS
GRAND FORKS    CLOUDY    67  65  93 E16G22    29.76R
GRAND FORKS AF CLOUDY    68  66  94 E13       29.76R
DEVILS LAKE    PTCLDY    66  61  82 CALM      29.74S
FARGO          CLOUDY    73  65  75 SE13      29.77S
CANDO          PTSUNNY   63  63 100 NE6       29.77F
CAVALIER       FAIR      64  64 100 S6        29.76S
GRAFTON        PTSUNNY   66  66 100 E10       29.76F
GWINNER          N/A     72  70  94 S6        29.76F
LANGDON        CLOUDY    64  64 100 E5        29.79F
ROLLA          CLOUDY    59  59 100 CALM      29.82R
WALHALLA       FAIR      64  64 100 MISG      29.77R
$$

CITY           SKY/WX    TMP DP  RH WIND       PRES   REMARKS
ABERDEEN       TSTM      66  60  81 MISG      29.80R VSB 1/2
MOBRIDGE       CLEAR     72  71  97 SE7       29.69F
BUFFALO          N/A     72  55  55 S3        29.70F
RAPID CITY     CLEAR     69  62  78 SW12      29.81F
GLASGOW        MOCLDY    63  53  70 N23G35    29.86S HAZE
SIDNEY         MOCLDY    66  61  82 N8        29.76R
WOLF POINT     TSTM      66  60  81 N30G38    29.86R
GLENDIVE       CLEAR     66  64  94 NE10      29.74F
MILES CITY     PTCLDY    68  61  78 NE13      29.70F
BAKER          PTCLDY    62  55  77 SE7       29.76F
$$

CITY           SKY/WX    TMP DP  RH WIND       PRES   REMARKS
BILLINGS       PTCLDY    75  57  53 W5        29.77F
GREAT FALLS    CLOUDY    59  52  77 N13       30.07R
REGINA         CLOUDY    59  57  94 NW5       29.89R FOG
ESTEVAN        CLOUDY    59  57  94 NE3       29.82R
$$



USA.gov is the U.S. government's official web portal to all federal, state and local government web resources and services.